Flag Weather past 2 weeks in Mesquite, Texas, U.S.A.

Now
36 °F

Clear.


Feels Like: 31 °F
Forecast: 42 / 63 °F
Wind: 6 mph from South

Location: Mesquite Metro Airport

Current Time: Nov 26, 2014 at 4:10:48 AM

Latest Report: Nov 26, 2014 at 3:35 AM


Visibility: 10 mi

Pressure: 30.07 "Hg

Humidity: 75%

Dew point: 29 °F

Location of MesquiteLocation

Historic Weather in Mesquite — Graph

°F

Mesquite temperature yesterday

Maximum temperature yesterday: 64 °F (at 1:50 PM)
Minimum temperature yesterday: 32 °F (at 3:35 AM)
Average temperature yesterday: 44 °F

Past Weeks' High & Low Weather Summary

 TemperatureHumidityPressure
High75 °F (Nov 23, 1:50 PM)100% (Nov 15, 7:50 PM)30.61 "Hg (Nov 15, 7:50 PM)
Low21 °F (Nov 18, 6:50 AM)21% (Nov 18, 2:50 PM)29.40 "Hg (Nov 23, 2:50 PM)
Average44 °F67%30.18 "Hg
* Reported Nov 11 2:15 AM — Nov 26 2:55 AM, Mesquite, Weather by CustomWeather, © 2014

Note: Actual official high and low records may vary slightly from our data, if they occured in-between our weather recording intervals... More about our weather records

Advertising

Mesquite weather history for previous 24 hours

 ConditionsComfort  
Time TempWeatherWind HumidityBarometerVisibility
2:55 AM
Nov 26
37 °FClear.6 mph74%30.08 "Hg10 mi
2:35 AM38 °FClear.8 mph73%30.09 "Hg10 mi
2:15 AM38 °FClear.8 mph71%30.08 "Hg10 mi
1:55 AM38 °FClear.9 mph75%30.09 "Hg10 mi
1:35 AM38 °FClear.8 mph76%30.09 "Hg10 mi
1:15 AM37 °FClear.8 mph77%30.09 "Hg10 mi
12:55 AM36 °FClear.7 mph78%30.10 "Hg10 mi
12:35 AM37 °FClear.7 mph74%30.11 "Hg10 mi
12:15 AM40 °FClear.6 mph66%30.11 "Hg10 mi
11:55 PM
Nov 25
40 °FClear.6 mph64%30.12 "Hg10 mi
11:35 PM41 °FClear.7 mph63%30.13 "Hg10 mi
11:15 PM41 °FClear.6 mph61%30.15 "Hg10 mi
10:55 PM41 °FClear.6 mph63%30.16 "Hg10 mi
10:35 PM43 °FClear.5 mph56%30.17 "Hg10 mi
10:15 PM46 °FClear.No wind49%30.17 "Hg10 mi
9:15 PM46 °FClear.5 mph45%30.15 "Hg10 mi
8:55 PM44 °FClear.5 mph56%30.15 "Hg10 mi
7:50 PM46 °FClear.3 mph46%30.17 "Hg10 mi
6:50 PM50 °FClear.3 mph40%30.18 "Hg10 mi
5:50 PM55 °FClear.No wind31%30.17 "Hg10 mi
4:50 PM61 °FSunny.12 mph25%30.17 "Hg10 mi
3:50 PM63 °FSunny.9 mph24%30.18 "Hg10 mi
1:50 PM64 °FSunny.18 mph24%30.19 "Hg10 mi
12:50 PM63 °FSunny.10 mph25%30.23 "Hg10 mi
11:50 AM59 °FSunny.5 mph31%30.28 "Hg10 mi
10:50 AM55 °FSunny.3 mph33%30.31 "Hg10 mi
9:50 AM50 °FSunny.6 mph47%30.32 "Hg10 mi
8:50 AM43 °FSunny.No wind71%30.31 "Hg10 mi
7:50 AM34 °FSunny.No wind87%30.29 "Hg10 mi
4:15 AM35 °FClear.3 mph84%30.20 "Hg10 mi
Weather by CustomWeather, © 2014

See weather overviewHow to use our weather pages